Location: Perry
(30.1170°N, 83.5820°W)
Time: 14:10:29

Humanity Star - Visible Passes

Search period start: 17 March 2018 00:00
Search period end: 27 March 2018 00:00
Orbit: 252 x 327 km, 82.9° (Epoch: 17 March)

Date Brightness Start Highest point End Pass type
(mag) Time Alt. Az. Time Alt. Az. Time Alt. Az.
17 Mar 4.4 07:13:43 10° N 07:16:19 71° W 07:18:55 10° S visible
17 Mar 8.2 20:18:51 10° W 20:19:35 11° W 20:20:19 10° WNW visible
22 Mar 6.3 07:10:09 10° W 07:10:13 10° W 07:10:17 10° W visible
